Regional Weather Roundup
Issued by NWS Sterling, VA

Home | Current Version | Previous Version | Text Only | Print | Product List | Glossary Off
Versions: 1 2 3 4 5 6 7 8 9 10 11 12 13 14 15 16 17 18 19 20 21 22 23 24 25 26 27 28 29 30 31 32 33 34 35 36 37 38 39 40 41 42 43 44 45 46 47 48 49 50

000
ASUS41 KLWX 211910
RWRLWX

REGIONAL WEATHER ROUNDUP
NATIONAL WEATHER SERVICE BALTIMORE MD/WASHINGTON DC
300 PM EDT THU AUG 21 2014

Note: "FAIR" indicates few or no clouds below 12,000 feet
with no significant weather and/or obstructions to visibility.
 TC=TEMPERATURE CELSIUS

 * =Non NWS site. Station does not report precipitation (e.g. rain,
    snow, etc.), thunder, or fog.

DCZ001-MDZ009-015-VAZ040>042-051-053>054-212000-
WASHINGTON METRO
  /KDAA//-FT BELVOIR

CITY           SKY/WX    TMP DP  RH WIND       PRES   REMARKS
WASHINGTON NAT PTSUNNY   88  69  53 SE3       30.00F HX  92
DULLES         PTSUNNY   84  71  65 S6        30.01F
ANDREWS AFB    MOSUNNY   88  70  55 W5        30.01F HX  92
QUANTICO       PTSUNNY   84  72  67 S6        30.02F
COLLEGE PARK*  MOSUNNY   88  64  45 SW3       29.99F
LEESBURG*      PTSUNNY   88  72  58 SW7       30.01F HX  94
MANASSAS*      MOSUNNY   86  70  58 S5        30.02F HX  90
GAITHERSBURG*  PTSUNNY   84  70  61 CALM      30.04F

$$

MDZ006>007-011-014-212000-
BALTIMORE METRO

CITY           SKY/WX    TMP DP  RH WIND       PRES   REMARKS
BWI AIRPORT    PTSUNNY   85  70  60 S6        29.99F
MD SCIENCE CTR   N/A     84  72  67 MISG      29.99F
MARTIN STATE   MOSUNNY   84  75  74 E10       30.01F HX  92
ANNAPOLIS      SUNNY     81  73  76 SE10      30.00F
FORT MEADE*    MOSUNNY   86  70  58 SW6       30.02F HX  90

$$

MDZ012-015-019>023-212000-
MARYLAND EASTERN SHORE

CITY           SKY/WX    TMP DP  RH WIND       PRES   REMARKS
OCEAN CITY     MOSUNNY   79  72  79 SE10      30.03F
SALISBURY      PTSUNNY   85  74  69 SE10      30.01F HX  92
BAY BRIDGE AP*   N/A     84  68  58 CALM      30.01F
CAMBRIDGE*     MOSUNNY   86  66  51 N7        30.00F
EASTON*        MOSUNNY   90  68  48 W5        30.04F HX  93

$$

MDZ017>025-212000-
SOUTHERN MARYLAND

CITY           SKY/WX    TMP DP  RH WIND       PRES   REMARKS
PATUXENT RIVER MOSUNNY   83  74  74 SE9       30.01F
ST INIGOES     MOSUNNY   86  70  58 S5        30.00F HX  90
LEONARDTOWN*   CLOUDY    82  70  65 E3        30.03S

$$

MDZ003>005-212000-
NORTH CENTRAL MARYLAND

CITY           SKY/WX    TMP DP  RH WIND       PRES   REMARKS
FREDERICK*     PTSUNNY   86  73  66 CALM      30.05S HX  93
HAGERSTOWN APT PTSUNNY   83  64  52 S5        30.01F
WESTMINSTER*   SUNNY     86  66  51 W3        30.02F

$$

MDZ501>502-212000-
WESTERN MARYLAND

CITY           SKY/WX    TMP DP  RH WIND       PRES   REMARKS
OAKLAND*       CLOUDY    68  66  94 SW5       30.15F
CUMBERLAND*    CLOUDY    90  63  40 S9        30.05F HX  90

$$

VAZ025>031-212000-
SHENANDOAH VALLEY

CITY           SKY/WX    TMP DP  RH WIND       PRES   REMARKS
WINCHESTER*    PTSUNNY   84  68  58 SW5       30.02F
STAUNTON*      CLOUDY    85  64  49 S9        30.09S

$$

WVZ021-048>050-054>055-212000-
EASTERN WEST VIRGINIA PANHANDLE

CITY           SKY/WX    TMP DP  RH WIND       PRES   REMARKS
MARTINSBURG    PTSUNNY   80  71  74 S3        30.02F
PETERSBURG*    NOT AVBL

$$

VAZ036>039-050-212000-
CENTRAL FOOTHILLS

CITY           SKY/WX    TMP DP  RH WIND       PRES   REMARKS
CHARLOTTESVILL CLOUDY    84  68  58 S6        30.05S
ORANGE*        CLOUDY    84  66  54 S5        30.05F

$$

VAZ055>057-212000-
NORTH AND CENTRAL PIEDMONT

CITY           SKY/WX    TMP DP  RH WIND       PRES   REMARKS
FREDERICKSBRG* PTSUNNY   88  69  53 CALM      30.01F HX  93
STAFFORD*      PTSUNNY   86  69  57 W3        30.06F

$$

NCZ024-NYZ072-PAZ021-071-VAZ022-071-212000-
OTHER REGIONAL OBSERVATIONS

CITY           SKY/WX    TMP DP  RH WIND       PRES   REMARKS
NEW YORK CITY  PTSUNNY   78  61  55 VRB6      30.06S
PHILADELPHIA   CLOUDY    82  68  62 S7        30.01F
PITTSBURGH     CLOUDY    77  68  73 SW8       30.05S
ROANOKE        PTSUNNY   87  64  46 VRB6      30.11F
RICHMOND       CLOUDY    89  69  51 CALM      30.01F HX  93
RALEIGH        PTSUNNY   90  71  53 W6        30.06F HX  96

$$

ANZ530>537-212000-
MARINE OBSERVATIONS

STATION/POSITION TIME  TEMP    WIND        PRES
                       AIR SEA DIR/SP/G
                 (UTC) (F)     (DEG/KT/KT) (MB)
THOMAS PT LIGHT  1900   80 78  150/  4/  5 1016.6F
BALT KEY BRIDGE  1900   79     110/ 11/ 12 1015.8F
COVE POINT       1900   78     180/  9/ 10 1016.1F
LEWISETTA        1900   80 80   90/  2/  4 1016.0F
SOLOMONS ISLAND  1900      81                N/A
PINEY POINT      1900          300/  2/  3   N/A

$$




USA.gov is the U.S. government's official web portal to all federal, state and local government web resources and services.